STARLINK-1153, 45080

Orbit data source: Space-Track

STARLINK-1153, 45080 is a payload satellite owned by SpaceX/Seattle (US) in LEO that was launched on Wed, 29 Jan 2020 UTC via an FALCON 9 launch vehicle from the Air Force Eastern Test Range (AFETR). Payload-class satellites include a variety of spacecraft equipped with specific instruments for various scientific and technological missions. These include communications satellites like Starlink; space stations such as the ISS; scientific satellites like the Hubble; Earth observation satellites from companies like Planet Labs, Umbra, and HawkEye 360; GPS; miniature CubeSats for education and research; and military/defense satellites.

Loading next visibility...
Identifier
45080, 2020-006AN
Orbit
LEO
Last TLE update
9 hours ago
Origin
Manufacturer
SpaceX/Seattle
Mission
Operational Commercial Communications
Bus & Motor
STARLINK, Unknown motor
Mass
260 kg wet, ~248 kg dry
Launch date (UTC)
2020-01-29 (5 years ago)
Launch vehicle
FALCON 9
Launch site
Air Force Eastern Test Range (AFETR)
Object type
Payload
Rocket body
Debris
Shape & HBR
Box + 1 Pan, 8.86 m
Radar Cross Section
13.562 m², Large (>1 m²)

Expand to show TLE details & history

TLE from 9 hours ago
0 STARLINK-1153
1 45080U 20006AN  25186.57378027  .00003628  00000-0  26228-3 0  9998
2 45080  53.0554 295.9692 0001381  82.6289 277.4857 15.06407647299494
Epoch: 2025-07-05T13:46Z
TLE epoch observation values (Epoch: 2025-07-05T13:46:14.615Z)
Latitude
-0.00001°
Longitude
165.59842°
Altitude
547.943 km
Speed
7.589 km/s
True Right ascension
19h 43m 52s
True Declination
0° 00' 00"
Sunlit
Object was in full shadow at epoch
Visualization orbit readout
Latitude
-28.97906°
Longitude
8.39974°
Altitude
556.572 km
Speed
7.583 km/s
Apparent Right ascension
05h 57m 54s
Apparent Declination
-72° 53' 59"
Sunlit
Object is in daylight
Visualization observer readout
Local Sidereal Time
10:37:44
Azimuth
199.099° SSW
Elevation
-32.411°
Doppler factor
1
Orbital elements
Apogee altitude
548.415 km
Perigee altitude
546.502 km
Semi-major axis
6,925.596 km
Eccentricity
0.00014
Inclination
53.0554°
RAAN
295.9692°
Arg. of periapsis
82.6289°
True anomaly
Unknown
Mean anomaly
277.4857°
Eccentric anomaly
Unknown
Mean motion
3.7658 °/min
Orbital period
95.6 mins
BSTAR
0.00026228
Loading maneuver chart data...
Loading SW <> Apogee altitude chart data...

STARLINK-1153 Visibility forecast

Observer location: undefined°, undefined°

Span
Click to sort rows by Start time (UTC) header in descending order
Start Az.
Max El. time (UTC)
Max El. Az.
Max El.
End time (UTC)
End Az.
6 mins2025-07-06 09:01:30.110Z183.876° SSW2025-07-06 09:04:30.110Z132.415° SE23.396°2025-07-06 09:07:30.110Z77.707° E
6 mins2025-07-06 10:41:30.110Z261.562° W2025-07-06 10:43:30.110Z306.022° NW34.64°2025-07-06 10:47:30.110Z38.904° NE
5 mins2025-07-06 15:43:30.110Z338.014° N2025-07-06 15:45:30.110Z21.371° NNE27.486°2025-07-06 15:48:30.110Z85.688° E
6 mins2025-07-06 17:22:30.110Z291.713° WNW2025-07-06 17:25:30.110Z219.388° SW34.03°2025-07-06 17:28:30.110Z158.719° S
|